Regional Weather Roundup
Issued by NWS Charleston, WV

Home | Current Version | Previous Version | Graphics & Text | Print | Product List | Glossary On
Versions: 1 2 3 4 5 6 7 8 9 10 11 12 13 14 15 16 17 18 19 20 21 22 23 24 25 26 27 28 29 30 31 32 33 34 35 36 37 38 39 40 41 42 43 44 45 46 47 48 49 50
909
ASUS41 KRLX 200110
RWRRLX
West Virginia Regional Weather Roundup
National Weather Service Charleston WV
800 PM EST THU JAN 19 2017

Note: "fair" indicates few or no clouds below 12,000 feet with no
significant weather and/or obstructions to visibility.

WVZ003-200200-
Northern Panhandle of West Virginia

CITY           SKY/WX    TMP DP  RH WIND       PRES   REMARKS
WHEELING       CLOUDY    35  32  88 NE5       29.95F
$$

WVZ009-200200-
Northwest West Virginia

CITY           SKY/WX    TMP DP  RH WIND       PRES   REMARKS
PARKERSBURG    CLOUDY    39  35  86 NE5       29.97F
$$

WVZ006-200200-
Western West Virginia

CITY           SKY/WX    TMP DP  RH WIND       PRES   REMARKS
HUNTINGTON     PTCLDY    47  39  74 E6        29.89F
$$

WVZ015-200200-
West Central West Virginia

CITY           SKY/WX    TMP DP  RH WIND       PRES   REMARKS
CHARLESTON     CLOUDY    48  40  73 NE5       29.91F
$$

WVZ022-031-200200-
North Central West Virginia

CITY           SKY/WX    TMP DP  RH WIND       PRES   REMARKS
CLARKSBURG     CLOUDY    38  36  92 CALM      29.95F
MORGANTOWN     CLOUDY    39  34  82 CALM      29.96F
$$

WVZ025-035-042-045-200200-
Southern West Virginia

CITY           SKY/WX    TMP DP  RH WIND       PRES   REMARKS
BECKLEY        CLOUDY    50  32  50 SE9       29.93F
LOGAN          CLOUDY    50  39  66 CALM      29.89F
BLUEFIELD      CLOUDY    50  32  50 E5        29.94F
LEWISBURG      CLOUDY    40  37  87 N5        29.96F
$$

WVZ047-200200-
Northern Mountains of West Virginia

CITY           SKY/WX    TMP DP  RH WIND       PRES   REMARKS
ELKINS         CLOUDY    42  38  85 CALM      29.95F
$$

WVZ052-200200-
Eastern Panhandle of West Virginia

CITY           SKY/WX    TMP DP  RH WIND       PRES   REMARKS
MARTINSBURG    CLOUDY    38  33  82 CALM      30.01R
PETERSBURG     CLOUDY    39  37  93 CALM      30.00S
$$




USA.gov is the U.S. government's official web portal to all federal, state and local government web resources and services.